TITAN 3C TRANSTAGE DEB, 21692

Orbit data source: Space-Track

TITAN 3C TRANSTAGE DEB, 21692 is space debris in HEO originally from a launch on Tue, 21 Dec 1965 UTC launched from the Air Force Eastern Test Range (AFETR). Debris objects in space refer to the collection of defunct objects orbiting the Earth. Examples of debris include non-operational satellites, rocket bodies, and fragments generated from explosions, collisions, or faulty payload assembly.

Loading next visibility...
Identifier
21692, 1965-108AF
Orbit
HEO
Last TLE update
3 days ago
Origin
Manufacturer
Unknown
Mission
Spacecraft
Bus & Motor
Unknown
Mass
Unknown
Launch date (UTC)
1965-12-21 (59 years ago)
Launch vehicle
Unknown
Launch site
Air Force Eastern Test Range (AFETR)
Object type
Payload
Rocket body
Debris
Shape & HBR
Unknown
Radar Cross Section
Medium (>0.1 m² and <1 m²)

Expand to show TLE details & history

TLE from 3 days ago
0 TITAN 3C TRANSTAGE DEB
1 21692U 65108AF  25126.05775650  .00000509  00000-0  26718-2 0  9991
2 21692  27.8568  57.4022 6166581  98.8190   0.1919  3.56819266392095
Epoch: 2025-05-06T01:23Z
Definitive object data (Epoch: 2025-05-06T01:23:10.161Z)
Latitude
27.56762°
Longitude
-86.66632°
Altitude
562.492 km
Speed
9.638 km/s
True Right ascension
10h 33m 09s
True Declination
27° 25' 22"
Sunlit
Object was in daylight at TLE epoch
Visualization TLE readout
Latitude
-27.24241°
Longitude
93.86467°
Altitude
22,864.246 km
Speed
2.287 km/s
Apparent Right ascension
23h 10m 55s
Apparent Declination
-31° 29' 04"
Sunlit
Object is in daylight
Visualization observer readout
Local Sidereal Time
14:52:14
Azimuth
97.255° ESE
Elevation
-45.008°
Doppler factor
1
Orbital elements
Apogee altitude
22,872.5 km
Perigee altitude
557.773 km
Semi-major axis
18,093.273 km
Eccentricity
0.6166581
Inclination
27.8568°
RAAN
57.4022°
Arg. of periapsis
98.819°
True anomaly
1.02799°
Mean anomaly
0.1919°
Eccentric anomaly
0.50059°
Mean motion
0.8918 °/min
BSTAR
0.0026718
Orbital period
403.68 mins
Loading maneuver chart data...
Loading SW <> Apogee altitude chart data...

TITAN 3C TRANSTAGE DEB Visibility forecast

Observer location: undefined°, undefined°

Span
Click to sort rows by Start time (UTC) header in descending order
Start Az.
Max El. time (UTC)
Max El. Az.
Max El.
End time (UTC)
End Az.
94 mins2025-05-09 14:11:21.579Z163.239° S2025-05-09 15:15:21.579Z154.553° SSE11.229°2025-05-09 15:45:21.579Z143.784° SSE
14 mins2025-05-09 23:13:21.579Z233.321° WSW2025-05-09 23:23:21.579Z185.095° SSW23.72°2025-05-09 23:27:21.579Z129.89° SE
4 mins2025-05-10 06:30:21.579Z185.792° SSW2025-05-10 06:31:21.579Z180.8° SSW10.866°2025-05-10 06:34:21.579Z169.081° S
|